Waarnemingen

Advertentie
Mijn weer
Vlissingen, Nederland (6310): temperatuur & dauwpunt: 17.01.2018 08:00:00 - 23.01.2018 08:00:00 (CET)Vlissingen, Nederland (6310): temperatuur 5cm: 17.01.2018 08:00:00 - 23.01.2018 08:00:00 (CET)Vlissingen, Nederland (6310): windsnelheid & windstoten: 17.01.2018 08:00:00 - 23.01.2018 08:00:00 (CET)Vlissingen, Nederland (6310): windrichting: 17.01.2018 08:00:00 - 23.01.2018 08:00:00 (CET)Vlissingen, Nederland (6310): luchtdruk: 17.01.2018 08:00:00 - 23.01.2018 08:00:00 (CET)Vlissingen, Nederland (6310): zicht: 17.01.2018 08:00:00 - 23.01.2018 08:00:00 (CET)Vlissingen, Nederland (6310): neerslag: 17.01.2018 08:00:00 - 23.01.2018 08:00:00 (CET)
Datum & Tijd tt [°C] td [°C] tt 5cm [°C] ff [km/u] ff [kn] fx [km/u] fx [kn] dd ppp [hPa] vv [km] rr [mm]
23.01.2018 08:00:00 6,7 4,7 6,0 26 14 32 18 Z 1019,9 10 0,0
23.01.2018 07:00:00 6,5 4,3 5,8 24 13 29 16 ZZW 1019,9 10 0,0
23.01.2018 06:00:00 6,1 4,2 5,5 22 12 29 16 ZZW 1019,9 10 0,0
23.01.2018 05:00:00 5,5 4,0 4,5 22 12 29 16 ZZW 1019,9 10 0,0
23.01.2018 04:00:00 5,4 3,8 3,9 21 11 - - ZW 1019,9 10 0,0
23.01.2018 03:00:00 5,4 3,9 4,3 25 14 29 16 ZW 1020,2 22 0,0
23.01.2018 02:00:00 5,5 4,0 4,3 22 12 29 16 WZW 1020,0 10 0,0
23.01.2018 01:00:00 6,3 4,9 5,1 22 12 25 14 WZW 1020,0 10 0,0
23.01.2018 00:00:00 6,7 4,7 5,6 22 12 29 16 W 1019,2 10 0,0
22.01.2018 23:00:00 7,4 4,4 6,1 24 13 32 18 W 1018,5 10 0,0
22.01.2018 22:00:00 7,4 4,9 6,3 22 12 - - W 1017,7 10 0,0
22.01.2018 21:00:00 7,5 5,5 7,0 25 14 36 19 W 1016,9 16 0,0
22.01.2018 20:00:00 7,4 5,4 6,8 22 12 36 19 W 1016,5 14 0,0
22.01.2018 19:00:00 7,0 5,2 6,0 24 13 36 19 W 1015,7 10 0,0
22.01.2018 18:00:00 7,2 5,1 6,2 24 13 36 19 W 1014,7 10 0,0
22.01.2018 17:00:00 6,9 4,7 6,3 18 10 32 18 W 1013,2 10 0,0
22.01.2018 16:00:00 7,7 4,8 7,1 21 11 - - WNW 1012,4 10 0,0
22.01.2018 15:00:00 8,4 5,3 8,3 18 10 29 16 WNW 1010,6 10 0,0
22.01.2018 14:00:00 8,8 5,7 9,0 16 9 29 16 WNW 1009,8 10 0,0
22.01.2018 13:00:00 8,7 5,7 7,8 18 10 29 16 WNW 1009,3 10 0,0
22.01.2018 12:00:00 8,1 6,4 7,3 14 8 22 12 WNW 1009,0 24 0,0
22.01.2018 11:00:00 8,2 6,7 7,7 11 6 18 10 WNW 1008,3 10 0,0
22.01.2018 10:00:00 7,2 6,2 6,8 11 6 - - W 1007,7 17 0,0
22.01.2018 09:00:00 7,4 6,1 6,4 13 7 22 12 W 1007,1 10 0,0
22.01.2018 08:00:00 7,5 6,8 7,1 21 11 32 18 W 1006,7 10 0,0
22.01.2018 07:00:00 7,7 6,7 7,1 24 13 32 18 W 1006,2 10 0,0
22.01.2018 06:00:00 7,6 7,0 7,3 28 15 40 21 W 1006,0 10 0,0
22.01.2018 05:00:00 8,3 7,7 7,8 31 17 47 25 W 1005,4 10 0,0
22.01.2018 04:00:00 7,8 7,6 7,4 29 16 - - W 1005,5 2,9 0,2
22.01.2018 03:00:00 5,8 5,6 5,2 22 12 29 16 ZW 1005,3 1,8 0,3
22.01.2018 02:00:00 4,7 4,5 4,5 18 10 29 16 ZZW 1005,5 1,8 0,0
22.01.2018 01:00:00 3,8 3,5 3,7 21 11 29 16 Z 1006,1 3,4 0,0
22.01.2018 00:00:00 3,6 3,0 3,4 26 14 32 18 ZZO 1006,7 5 0,0
21.01.2018 23:00:00 3,5 2,5 3,1 29 16 40 21 ZZO 1007,6 10 0,3
21.01.2018 22:00:00 3,4 2,3 3,0 37 20 - - ZZO 1008,6 10 1,5
21.01.2018 21:00:00 3,3 2,2 2,9 39 21 47 25 ZO 1009,9 8 1,6
21.01.2018 20:00:00 3,3 2,1 3,0 34 18 43 23 ZZO 1011,9 10 0,4
21.01.2018 19:00:00 3,1 1,8 2,9 28 15 40 21 Z 1012,7 10 0,1
21.01.2018 18:00:00 3,3 1,8 3,2 29 16 32 18 Z 1013,5 22 0,0
21.01.2018 17:00:00 4,5 2,7 4,2 22 12 29 16 Z 1014,2 10 0,0
21.01.2018 16:00:00 4,8 2,7 4,4 18 10 - - Z 1015,0 10 0,0
21.01.2018 15:00:00 4,7 3,0 4,6 14 8 18 10 Z 1015,4 12 0,0
21.01.2018 14:00:00 4,9 3,0 5,2 16 9 22 12 ZZW 1016,1 10 0,0
21.01.2018 13:00:00 5,1 3,0 5,7 16 9 22 12 ZW 1016,4 10 0,0
21.01.2018 12:00:00 4,8 2,9 4,4 15 8 18 10 ZZW 1016,5 10 0,0
21.01.2018 11:00:00 4,6 2,9 4,3 11 6 14 8 WZW 1016,4 10 0,0
21.01.2018 10:00:00 3,8 2,4 3,1 13 7 - - ZW 1015,8 10 0,0
21.01.2018 09:00:00 3,8 1,0 2,2 9 5 14 8 WNW 1015,4 10 0,0
21.01.2018 08:00:00 3,5 0,0 1,6 13 7 18 10 NW 1014,6 10 0,1
21.01.2018 07:00:00 3,6 0,7 1,3 9 5 14 8 WNW 1013,8 10 0,0
21.01.2018 06:00:00 3,2 -0,2 1,2 9 5 18 10 NW 1013,1 10 0,0
21.01.2018 05:00:00 3,4 0,2 1,6 11 6 18 10 NW 1012,3 10 0,0
21.01.2018 04:00:00 4,3 0,6 2,5 16 9 - - NW 1011,2 10 0,0
21.01.2018 03:00:00 4,4 0,0 2,7 16 9 29 16 NNW 1010,5 10 0,0
21.01.2018 02:00:00 4,0 2,1 2,4 11 6 14 8 NW 1009,3 10 0,0
21.01.2018 01:00:00 4,3 2,3 2,8 15 8 25 14 WNW 1007,8 10 0,0
21.01.2018 00:00:00 3,6 2,7 2,8 11 6 18 10 WNW 1006,5 31 0,0
20.01.2018 23:00:00 3,2 2,6 3,0 11 6 18 10 NNW 1005,5 4,7 0,0
20.01.2018 22:00:00 3,1 2,1 2,5 9 5 - - N 1004,3 9 0,0
20.01.2018 21:00:00 3,0 2,3 2,6 8 4 11 6 N 1003,0 6 0,0
20.01.2018 20:00:00 3,2 2,4 2,3 8 4 11 6 N 1001,9 8 0,1
20.01.2018 19:00:00 3,3 2,2 3,1 4 2 7 4 - 1000,9 8 0,5
20.01.2018 18:00:00 3,5 1,9 3,1 9 5 14 8 O 1000,1 10 0,1
20.01.2018 17:00:00 3,7 2,3 3,3 11 6 18 10 O 999,5 31 0,0
20.01.2018 16:00:00 3,7 2,1 3,5 13 7 - - OZO 999,1 10 0,1
20.01.2018 15:00:00 3,8 2,1 3,6 11 6 18 10 ZO 999,1 10 0,1
20.01.2018 14:00:00 3,9 2,5 4,0 13 7 18 10 ZZO 999,8 10 0,6
20.01.2018 13:00:00 4,0 3,3 4,1 15 8 18 10 Z 1001,0 8 0,5
20.01.2018 12:00:00 3,9 3,2 3,9 15 8 22 12 ZZO 1002,4 8 0,5
20.01.2018 11:00:00 4,0 3,2 3,8 28 15 32 18 Z 1003,1 8 0,2
20.01.2018 10:00:00 3,6 2,8 3,3 24 13 - - Z 1003,5 10 0,0
20.01.2018 09:00:00 3,2 2,3 2,8 29 16 32 18 Z 1004,1 15 0,0
20.01.2018 08:00:00 2,7 1,7 2,1 24 13 29 16 Z 1004,8 10 0,0
20.01.2018 07:00:00 2,4 1,0 1,7 22 12 29 16 Z 1005,8 10 0,0
20.01.2018 06:00:00 2,9 1,2 2,1 22 12 29 16 ZZW 1006,3 10 0,0
20.01.2018 05:00:00 2,9 1,3 2,2 22 12 25 14 ZW 1006,8 10 0,0
20.01.2018 04:00:00 3,5 1,6 2,5 26 14 - - ZW 1007,7 10 0,0
20.01.2018 03:00:00 3,4 1,5 2,5 21 11 29 16 ZW 1008,5 10 0,0
20.01.2018 02:00:00 3,5 1,3 2,7 26 14 32 18 ZW 1008,6 10 0,0
20.01.2018 01:00:00 5,7 2,3 4,6 31 17 - - W 1008,7 10 0,0
20.01.2018 00:00:00 5,7 1,8 4,7 34 18 47 25 W 1008,6 10 0,0
19.01.2018 23:00:00 5,8 1,9 4,6 32 18 43 23 W 1008,6 21 0,0
19.01.2018 22:00:00 3,9 1,7 3,1 29 16 - - ZW 1008,7 10 0,0
19.01.2018 21:00:00 4,6 1,5 4,0 24 13 32 18 WZW 1008,7 10 0,0
19.01.2018 20:00:00 6,0 0,6 4,8 29 16 40 21 W 1008,6 10 0,0
19.01.2018 19:00:00 5,9 0,9 4,7 29 16 36 19 W 1008,8 10 0,0
19.01.2018 18:00:00 5,7 1,3 4,7 31 17 40 21 W 1008,6 10 0,0
19.01.2018 17:00:00 5,6 1,3 4,5 29 16 40 21 W 1008,5 10 0,0
19.01.2018 16:00:00 5,6 1,5 4,7 31 17 - - WZW 1008,6 10 0,0
19.01.2018 15:00:00 6,0 2,0 6,0 34 18 40 21 W 1008,5 10 0,0
19.01.2018 14:00:00 5,7 1,5 5,7 34 18 40 21 WZW 1008,8 10 0,0
19.01.2018 13:00:00 6,0 2,5 5,1 26 14 32 18 WZW 1009,0 10 0,0
19.01.2018 12:00:00 6,0 3,5 6,5 21 11 25 14 WZW 1009,0 10 0,0
19.01.2018 11:00:00 4,6 2,7 4,4 22 12 32 18 WZW 1009,0 10 0,0
19.01.2018 10:00:00 5,2 1,5 4,2 24 13 - - W 1008,5 10 0,0
19.01.2018 09:00:00 4,8 1,3 3,6 21 11 36 19 W 1008,1 10 0,0
19.01.2018 08:00:00 5,1 1,4 4,0 26 14 43 23 W 1007,4 10 0,0
19.01.2018 07:00:00 5,2 1,5 4,2 31 17 43 23 WNW 1007,0 10 0,0
19.01.2018 06:00:00 5,3 1,5 4,4 31 17 47 25 W 1006,7 10 0,0
19.01.2018 05:00:00 5,1 1,4 4,1 37 20 50 27 WNW 1006,1 10 0,0
19.01.2018 04:00:00 5,4 1,6 4,3 37 20 - - WNW 1005,5 10 0,0
19.01.2018 03:00:00 5,1 2,2 3,9 28 15 47 25 WNW 1005,2 10 0,4
19.01.2018 02:00:00 5,3 1,6 4,4 35 19 50 27 WNW 1004,2 10 0,0
19.01.2018 01:00:00 5,7 2,0 4,7 31 17 54 29 W 1003,8 10 0,0
19.01.2018 00:00:00 5,9 2,9 4,8 22 12 32 18 W 1003,4 10 0,0
18.01.2018 23:00:00 5,1 3,2 3,9 16 9 36 19 WNW 1003,0 10 1,8
18.01.2018 22:00:00 4,8 3,2 4,2 22 12 - - WZW 1002,5 10 0,0
18.01.2018 21:00:00 5,0 2,7 3,8 24 13 36 19 WZW 1002,3 10 0,6
18.01.2018 20:00:00 4,8 2,6 4,5 34 18 43 23 W 1002,5 10 0,9
18.01.2018 19:00:00 6,5 3,3 5,1 11 6 18 10 W 1001,8 10 0,0
18.01.2018 18:00:00 6,7 2,9 5,9 18 10 29 16 W 1001,9 10 0,0
18.01.2018 17:00:00 7,0 2,4 6,3 21 11 36 19 W 1002,2 10 0,0
18.01.2018 16:00:00 6,8 2,8 6,3 28 15 - - W 1002,1 10 0,0
18.01.2018 15:00:00 7,0 2,9 6,6 34 18 47 25 W 1001,5 10 0,0
18.01.2018 14:00:00 7,1 2,4 7,4 31 17 50 27 W 1001,3 10 0,0
18.01.2018 13:00:00 6,5 2,0 6,1 42 23 65 35 WNW 1000,8 10 0,0
18.01.2018 12:00:00 6,5 1,6 6,3 52 28 72 39 WNW 1000,0 10 0,0
18.01.2018 11:00:00 6,6 1,5 6,3 57 31 79 43 WNW 997,9 10 0,0
18.01.2018 10:00:00 7,2 1,5 6,6 63 34 - - W 994,5 9 0,0
18.01.2018 09:00:00 8,7 3,5 8,0 85 46 119 64 W 991,3 7 0,0
18.01.2018 08:00:00 9,4 6,1 8,6 81 44 112 60 WZW 988,6 4,8 0,0
18.01.2018 07:00:00 10,0 6,5 9,3 86 47 104 56 WZW 988,5 6 0,0
18.01.2018 06:00:00 8,8 7,1 7,9 55 30 76 41 ZW 990,2 10 0,0
18.01.2018 05:00:00 6,6 5,6 5,9 54 29 68 37 ZZW 992,1 6 0,3
18.01.2018 04:00:00 5,4 4,4 4,9 48 26 - - ZZW 994,7 3,2 1,3
18.01.2018 03:00:00 5,3 3,9 4,6 42 23 58 31 Z 998,3 6 2,5
18.01.2018 02:00:00 5,1 3,1 4,5 37 20 54 29 ZZW 1001,5 10 0,7
18.01.2018 01:00:00 5,9 2,8 5,0 32 18 50 27 ZW 1003,7 13 0,3
18.01.2018 00:00:00 6,4 3,0 5,9 40 21 47 25 ZW 1005,6 10 0,0
17.01.2018 23:00:00 6,4 2,8 5,8 42 23 50 27 WZW 1006,5 10 0,0
17.01.2018 22:00:00 6,4 2,3 5,7 37 20 - - WZW 1007,2 10 0,0
17.01.2018 21:00:00 6,5 1,7 5,7 35 19 47 25 W 1007,3 10 0,0
17.01.2018 20:00:00 6,6 1,7 6,1 37 20 47 25 W 1007,4 10 0,0
17.01.2018 19:00:00 6,8 1,2 6,1 39 21 58 31 W 1007,3 10 0,0
17.01.2018 18:00:00 6,5 1,2 5,8 37 20 50 27 W 1007,4 10 0,0
17.01.2018 17:00:00 6,6 1,1 6,0 37 20 58 31 W 1007,0 10 0,0
17.01.2018 16:00:00 6,4 0,7 5,7 39 21 - - W 1006,3 10 0,0
17.01.2018 15:00:00 6,6 0,9 6,1 42 23 68 37 W 1005,2 10 0,0
17.01.2018 14:00:00 6,4 1,1 5,6 44 24 68 37 W 1004,8 10 0,0
17.01.2018 13:00:00 6,3 0,7 6,0 57 31 79 43 WNW 1003,6 10 0,0
17.01.2018 12:00:00 6,2 0,6 5,6 50 27 72 39 WNW 1002,7 10 0,0
17.01.2018 11:00:00 5,7 0,0 5,3 59 32 79 43 WNW 1001,9 10 0,0
17.01.2018 10:00:00 5,5 0,0 4,9 54 29 76 41 WNW 1000,8 10 0,0
17.01.2018 09:00:00 5,3 -0,5 4,6 52 28 72 39 WNW 999,7 10 0,0
17.01.2018 08:00:00 4,9 -1,6 4,4 59 32 79 43 WNW 998,3 10 0,0

tt = temperatuur
td = dauwpunt
tt 5cm = temperatuur 5cm
ff = windsnelheid
fx = windstoten
dd = windrichting
ppp = luchtdruk
vv = zicht
rr = neerslag

Weerstations in de omgeving